Weather History for Sparta, TN

Change the Weather History Date:

Saturday, January 19, 2013

  Actual Average (KCSV) Record (KCSV)
Temperature  
Mean Temperature 38 °F 36 °F  
Max Temperature 53 °F 44 °F 63 °F (1974)
Min Temperature 24 °F 27 °F -11 °F (1994)
Degree Days  
Heating Degree Days 26    
Month to date heating degree days  
Since 1 July heating degree days  
Cooling Degree Days 0    
Month to date cooling degree days  
Year to date cooling degree days  
Moisture  
Dew Point 33 °F    
Average Humidity 80    
Maximum Humidity 100    
Minimum Humidity 58    
Precipitation  
Precipitation 0.00 in 0.16 in 2.26 in (1988)
Month to date precipitation 2.93  
Year to date precipitation 2.93  
Sea Level Pressure  
Sea Level Pressure 30.26 in    
Wind  
Wind Speed 6 mph (SSW)    
Max Wind Speed 16 mph    
Max Gust Speed -    
Visibility 10 miles    
Events      
T = Trace of Precipitation, MM = Missing Value Source: NWS Daily Summary

Daily Weather History Graph

Daily Weather History Graph

Search for Another Location

Airport:

Trip Planner

Search our weather history database for the weather conditions in past years. The results will help you decide how hot, cold, wet, or windy it might be!

Date:

Astronomy

Jan. 19, 2013 Rise Set
Actual Time 6:50 AM CST 4:55 PM CST
Civil Twilight 6:22 AM CST 5:23 PM CST
Nautical Twilight 5:51 AM CST 5:54 PM CST
Astronomical Twilight 5:20 AM CST 6:25 PM CST
Moon 11:19 AM CST (1/19) 12:27 AM CST (1/19)
Length of Visible Light 11h 00m
Length of Day
10h 05m
First Quarter, 57% of the Moon is Illuminated
Jan 19
First Quarter
Jan 26
Full
Feb 3
Last Quarter
Feb 10
New
Feb 17
First Quarter

Hourly Weather History & Observations

Time (CST) Temp. Windchill Dew Point Humidity Pressure Visibility Wind Dir Wind Speed Gust Speed Precip Events Conditions
12:15 AM 35.6 °F 32.8 °F 30.2 °F 81% 30.36 in 10.0 mi South 3.5 mph - N/A   Clear
12:35 AM 30.2 °F 26.7 °F 28.4 °F 93% 30.36 in 10.0 mi South 3.5 mph - N/A   Clear
12:55 AM 26.6 °F - 26.6 °F 100% 30.37 in 10.0 mi Calm Calm - N/A   Clear
1:15 AM 28.4 °F 23.3 °F 26.6 °F 93% 30.37 in 10.0 mi South 4.6 mph - N/A   Clear
1:35 AM 30.2 °F 25.4 °F 28.4 °F 93% 30.37 in 10.0 mi South 4.6 mph - N/A   Clear
1:55 AM 33.8 °F 28.6 °F 30.2 °F 87% 30.38 in 10.0 mi South 5.8 mph - N/A   Clear
2:15 AM 30.2 °F 25.4 °F 28.4 °F 93% 30.37 in 10.0 mi SSE 4.6 mph - N/A   Clear
2:35 AM 30.2 °F 26.7 °F 28.4 °F 93% 30.37 in 10.0 mi SSE 3.5 mph - N/A   Clear
2:55 AM 30.2 °F - 28.4 °F 93% 30.37 in 10.0 mi Calm Calm - N/A   Clear
3:15 AM 26.6 °F - 26.6 °F 100% 30.37 in 10.0 mi Calm Calm - N/A   Clear
3:35 AM 26.6 °F 22.6 °F 24.8 °F 93% 30.35 in 10.0 mi South 3.5 mph - N/A   Clear
3:55 AM 24.8 °F - 24.8 °F 100% 30.35 in 10.0 mi Calm Calm - N/A   Clear
4:15 AM 24.8 °F 20.5 °F 24.8 °F 100% 30.35 in 10.0 mi South 3.5 mph - N/A   Clear
4:35 AM 30.2 °F 25.4 °F 28.4 °F 93% 30.35 in 10.0 mi South 4.6 mph - N/A   Clear
4:55 AM 30.2 °F 24.3 °F 28.4 °F 93% 30.35 in 10.0 mi South 5.8 mph - N/A   Clear
5:15 AM 30.2 °F 26.7 °F 28.4 °F 93% 30.35 in 10.0 mi South 3.5 mph - N/A   Clear
5:35 AM 30.2 °F 24.3 °F 28.4 °F 93% 30.34 in 10.0 mi SSE 5.8 mph - N/A   Clear
5:55 AM 33.8 °F 27.7 °F 30.2 °F 87% 30.34 in 10.0 mi South 6.9 mph - N/A   Clear
7:15 AM 35.6 °F 28.6 °F 30.2 °F 81% 30.35 in 10.0 mi South 9.2 mph - N/A   Clear
7:55 AM 37.4 °F 30.3 °F 32.0 °F 81% 30.35 in 10.0 mi South 10.4 mph - N/A   Clear
8:15 AM 39.2 °F 32.5 °F 33.8 °F 81% 30.35 in 10.0 mi South 10.4 mph - N/A   Clear
8:35 AM 39.2 °F 33.6 °F 33.8 °F 81% 30.35 in 10.0 mi South 8.1 mph - N/A   Clear
9:35 AM 44.6 °F 39.2 °F 37.4 °F 76% 30.37 in 10.0 mi SSW 10.4 mph - N/A   Clear
9:55 AM 46.4 °F 41.5 °F 37.4 °F 71% 30.36 in 10.0 mi SSW 10.4 mph - N/A   Clear
10:15 AM 48.2 °F - 39.2 °F 71% 30.36 in 10.0 mi SW 9.2 mph - N/A   Clear
10:35 AM 48.2 °F - 39.2 °F 71% 30.34 in 10.0 mi SW 11.5 mph - N/A   Clear
11:15 AM 51.8 °F - 39.2 °F 62% 30.31 in 10.0 mi SW 16.1 mph - N/A   Clear
11:35 AM 51.8 °F - 39.2 °F 62% 30.29 in 10.0 mi SW 12.7 mph - N/A   Clear
11:55 AM 51.8 °F - 39.2 °F 62% 30.27 in 10.0 mi SSW 15.0 mph - N/A   Clear
12:15 PM 51.8 °F - 41.0 °F 67% 30.26 in 10.0 mi SW 10.4 mph - N/A   Clear
12:35 PM 51.8 °F - 39.2 °F 62% 30.25 in 10.0 mi SW 16.1 mph - N/A   Clear
12:55 PM 51.8 °F - 39.2 °F 62% 30.23 in 10.0 mi SW 16.1 mph - N/A   Clear
1:15 PM 51.8 °F - 39.2 °F 62% 30.22 in 10.0 mi SSW 13.8 mph - N/A   Clear
1:35 PM 51.8 °F - 41.0 °F 67% 30.21 in 10.0 mi SSW 12.7 mph - N/A   Clear
1:55 PM 53.6 °F - 41.0 °F 62% 30.21 in 10.0 mi SW 12.7 mph - N/A   Clear
2:15 PM 53.6 °F - 41.0 °F 62% 30.20 in 10.0 mi WSW 9.2 mph - N/A   Clear
2:35 PM 53.6 °F - 39.2 °F 58% 30.20 in 10.0 mi WSW 10.4 mph - N/A   Clear
2:55 PM 53.6 °F - 39.2 °F 58% 30.19 in 10.0 mi SW 13.8 mph - N/A   Clear
3:15 PM 53.6 °F - 39.2 °F 58% 30.19 in 10.0 mi WSW 13.8 mph - N/A   Clear
3:35 PM 51.8 °F - 37.4 °F 58% 30.19 in 10.0 mi SW 10.4 mph - N/A   Clear
3:55 PM 51.8 °F - 37.4 °F 58% 30.19 in 10.0 mi WSW 11.5 mph - N/A   Clear
4:15 PM 50.0 °F - 37.4 °F 62% 30.19 in 10.0 mi SW 10.4 mph - N/A   Clear
4:35 PM 48.2 °F - 37.4 °F 66% 30.18 in 10.0 mi SSW 9.2 mph - N/A   Clear
4:55 PM 46.4 °F 41.5 °F 37.4 °F 71% 30.18 in 10.0 mi SW 10.4 mph - N/A   Clear
5:15 PM 44.6 °F 40.2 °F 35.6 °F 71% 30.18 in 10.0 mi SW 8.1 mph - N/A   Clear
5:35 PM 42.8 °F 39.3 °F 35.6 °F 76% 30.19 in 10.0 mi SW 5.8 mph - N/A   Clear
5:55 PM 42.8 °F 39.3 °F 35.6 °F 76% 30.18 in 10.0 mi SSW 5.8 mph - N/A   Clear
6:15 PM 42.8 °F 37.5 °F 35.6 °F 76% 30.18 in 10.0 mi SSW 9.2 mph - N/A   Clear
6:35 PM 42.8 °F 38.0 °F 35.6 °F 76% 30.18 in 10.0 mi SSW 8.1 mph - N/A   Clear
6:55 PM 41.0 °F 35.8 °F 33.8 °F 76% 30.18 in 10.0 mi SSW 8.1 mph - N/A   Clear
7:15 PM 41.0 °F 35.8 °F 33.8 °F 76% 30.18 in 10.0 mi SSW 8.1 mph - N/A   Clear
7:35 PM 37.4 °F 32.1 °F 33.8 °F 87% 30.18 in 10.0 mi SSW 6.9 mph - N/A   Clear
7:55 PM 39.2 °F 33.0 °F 33.8 °F 81% 30.17 in 10.0 mi SSW 9.2 mph - N/A   Clear
8:15 PM 39.2 °F 35.0 °F 33.8 °F 81% 30.17 in 10.0 mi SSW 5.8 mph - N/A   Clear
8:35 PM 37.4 °F 32.8 °F 33.8 °F 87% 30.16 in 10.0 mi South 5.8 mph - N/A   Clear
8:55 PM 37.4 °F - 33.8 °F 87% 30.16 in 10.0 mi Calm Calm - N/A   Clear
9:15 PM 33.8 °F 30.8 °F 32.0 °F 93% 30.17 in 10.0 mi South 3.5 mph - N/A   Clear
9:35 PM 33.8 °F 29.6 °F 32.0 °F 93% 30.16 in 10.0 mi South 4.6 mph - N/A   Clear
9:55 PM 33.8 °F 30.8 °F 30.2 °F 87% 30.17 in 10.0 mi SSW 3.5 mph - N/A   Clear
10:15 PM 32.0 °F 28.7 °F 30.2 °F 93% 30.17 in 10.0 mi SSW 3.5 mph - N/A   Clear
10:35 PM 30.2 °F - 28.4 °F 93% 30.17 in 10.0 mi Calm Calm - N/A   Clear
11:15 PM 30.2 °F 26.7 °F 30.2 °F 100% 30.18 in 10.0 mi WSW 3.5 mph - N/A   Clear
11:35 PM 30.2 °F - 28.4 °F 93% 30.18 in 10.0 mi Calm Calm - N/A   Clear
11:55 PM 30.2 °F - 30.2 °F 100% 30.17 in 10.0 mi Calm Calm - N/A   Clear